GW3558 Weather Reports


Display with metric or nautical units.
time (UTC)temp
F
wind
direction
speed
MPH
gust
MPH
rain 1hr
in
rain 24hr
in
rain mn
in
humidity
%
barometer
mb
20260906214021 56 116 0.0 0.0 0.00 0.00 0.00 56 1019.3
20260906213522 56 116 0.0 0.0 0.00 0.00 0.00 57 1019.4
20260906213055 55 116 0.0 0.0 0.00 0.00 0.00 57 1019.4
20260906212519 55 117 0.0 0.0 0.00 0.00 0.00 56 1019.4
20260906212018 55 115 0.0 0.0 0.00 0.00 0.00 56 1019.4
20260906211552 55 117 0.0 0.0 0.00 0.00 0.00 57 1019.4
20260906211019 55 116 0.0 0.0 0.00 0.00 0.00 57 1019.4
20260906210520 55 116 0.0 0.0 0.00 0.00 0.00 54 1019.4
20260906210049 55 115 0.0 0.0 0.00 0.00 0.00 53 1019.4
20260906205517 55 117 0.0 0.0 0.00 0.00 0.00 54 1019.3
20260906205017 55 117 0.0 0.0 0.00 0.00 0.00 52 1019.3
20260906204558 56 117 0.0 0.0 0.00 0.00 0.00 52 1019.3
20260906203053 55 117 0.0 0.0 0.00 0.00 0.00 52 1019.3
20260906202519 55 117 0.0 0.0 0.00 0.00 0.00 54 1019.4
20260906202018 55 117 0.0 0.0 0.00 0.00 0.00 53 1019.4
20260906201550 55 117 0.0 0.0 0.00 0.00 0.00 52 1019.4
20260906201021 54 117 0.0 0.0 0.00 0.00 0.00 55 1019.3
20260906200520 54 117 0.0 0.0 0.00 0.00 0.00 53 1019.3
20260906200100 54 117 0.0 0.0 0.00 0.00 0.00 54 1019.3
20260906194555 55 116 0.0 0.0 0.00 0.00 0.00 55 1019.4
20260906193518 55 117 0.0 0.0 0.00 0.00 0.00 57 1019.4
20260906193050 55 117 0.0 0.0 0.00 0.00 0.00 52 1019.4
20260906192519 55 117 0.0 0.0 0.00 0.00 0.00 50 1019.3
20260906192019 55 117 0.0 0.0 0.00 0.00 0.00 52 1019.4
20260906191605 56 117 0.0 0.0 0.00 0.00 0.00 52 1019.3
20260906191020 56 117 0.0 0.0 0.00 0.00 0.00 55 1019.5
20260906190059 56 117 0.0 4.0 0.00 0.00 0.00 52 1019.6
20260906185518 57 116 0.0 1.0 0.00 0.00 0.00 52 1019.8
20260906184601 57 115 0.0 0.0 0.00 0.00 0.00 50 1019.9
20260906183517 58 115 0.0 0.0 0.00 0.00 0.00 51 1019.8
20260906183048 58 115 0.0 0.0 0.00 0.00 0.00 49 1019.8
20260906181552 57 115 0.0 3.0 0.00 0.00 0.00 52 1019.9
20260906181021 57 115 0.0 2.0 0.00 0.00 0.00 50 1020.0
20260906180519 58 116 0.0 2.0 0.00 0.00 0.00 51 1019.9
20260906180114 57 116 0.0 0.0 0.00 0.00 0.00 53 1019.9
20260906174557 56 115 0.0 0.0 0.00 0.00 0.00 51 1020.1
20260906173055 55 115 0.0 0.0 0.00 0.00 0.00 54 1020.0
20260906172019 56 119 0.0 0.0 0.00 0.00 0.00 54 1019.9
20260906171557 55 115 0.0 0.0 0.00 0.00 0.00 53 1019.9
20260906170057 54 115 0.0 0.0 0.00 0.00 0.00 53 1020.0
20260906165519 54 115 0.0 0.0 0.00 0.00 0.00 53 1019.9
20260906165017 54 115 0.0 0.0 0.00 0.00 0.00 55 1020.1
20260906164600 54 115 0.0 0.0 0.00 0.00 0.00 55 1020.1
20260906163116 54 117 0.0 0.0 0.00 0.00 0.00 54 1020.0
20260906162518 54 117 0.0 0.0 0.00 0.00 0.00 54 1019.9
20260906162018 54 117 0.0 0.0 0.00 0.00 0.00 53 1020.0
20260906161552 54 115 0.0 0.0 0.00 0.00 0.00 55 1019.9
20260906161020 54 115 0.0 0.0 0.00 0.00 0.00 56 1019.9
20260906160057 53 115 0.0 0.0 0.00 0.00 0.00 57 1020.1
20260906154552 51 115 0.0 0.0 0.00 0.00 0.00 60 1020.1
20260906153522 50 115 0.0 0.0 0.00 0.00 0.00 64 1020.0
20260906153116 49 115 0.0 0.0 0.00 0.00 0.00 64 1019.9
20260906152523 48 115 0.0 0.0 0.00 0.00 0.00 68 1020.1
20260906152017 48 115 0.0 0.0 0.00 0.00 0.00 68 1020.1
20260906151609 47 115 0.0 0.0 0.00 0.00 0.00 68 1020.0
20260906150057 47 115 0.0 0.0 0.00 0.00 0.00 68 1019.9
20260906144555 46 115 0.0 0.0 0.00 0.00 0.00 69 1020.1
20260906143521 45 115 0.0 0.0 0.00 0.00 0.00 70 1020.2
20260906143055 45 115 0.0 0.0 0.00 0.00 0.00 72 1020.2
20260906141548 44 115 0.0 0.0 0.00 0.00 0.00 73 1020.3
20260906140106 43 115 0.0 0.0 0.00 0.00 0.00 74 1020.3
20260906134554 42 115 0.0 0.0 0.00 0.00 0.00 75 1020.4
20260906133520 42 115 0.0 0.0 0.00 0.00 0.00 76 1020.7
20260906133119 42 115 0.0 0.0 0.00 0.00 0.00 77 1020.6
20260906131610 42 115 0.0 0.0 0.00 0.00 0.00 76 1020.6
20260906131021 42 115 0.0 0.0 0.00 0.00 0.00 76 1020.7
20260906130112 42 115 0.0 0.0 0.00 0.00 0.00 76 1020.6
20260906124556 42 115 0.0 0.0 0.00 0.00 0.00 76 1020.8
20260906124024 42 115 0.0 0.0 0.00 0.00 0.00 77 1020.8
20260906123055 42 115 0.0 0.0 0.00 0.00 0.00 77 1020.9
20260906122519 42 115 0.0 0.0 0.00 0.00 0.00 77 1020.9
20260906122019 42 115 0.0 0.0 0.00 0.00 0.00 77 1021.0
20260906121552 42 115 0.0 0.0 0.00 0.00 0.00 77 1020.9
20260906120518 42 115 0.0 0.0 0.00 0.00 0.00 78 1021.0
20260906120101 42 115 0.0 0.0 0.00 0.00 0.00 78 1021.0
20260906114554 41 115 0.0 0.0 0.00 0.00 0.00 78 1021.0
20260906113052 41 117 0.0 0.0 0.00 0.00 0.00 79 1021.1
20260906111551 42 117 0.0 0.0 0.00 0.00 0.00 78 1021.2
20260906110056 42 117 0.0 0.0 0.00 0.00 0.00 77 1021.2
20260906104555 42 117 0.0 0.0 0.00 0.00 0.00 77 1021.4
20260906103053 43 117 0.0 0.0 0.00 0.00 0.00 77 1021.4
20260906102520 43 117 0.0 0.0 0.00 0.00 0.00 77 1021.4
20260906102020 43 117 0.0 0.0 0.00 0.00 0.00 77 1021.4
20260906101556 42 117 0.0 0.0 0.00 0.00 0.00 77 1021.4
20260906101019 42 117 0.0 0.0 0.00 0.00 0.00 77 1021.6
20260906100523 42 117 0.0 0.0 0.00 0.00 0.00 78 1021.6
20260906095520 42 117 0.0 0.0 0.00 0.00 0.00 78 1021.6
20260906095018 42 117 0.0 0.0 0.00 0.00 0.00 78 1021.6
20260906094017 43 117 0.0 0.0 0.00 0.00 0.00 78 1021.6
20260906093518 42 117 0.0 0.0 0.00 0.00 0.00 78 1021.7
20260906092523 42 117 0.0 0.0 0.00 0.00 0.00 79 1021.7
20260906092019 42 117 0.0 0.0 0.00 0.00 0.00 79 1021.7
20260906091018 42 117 0.0 0.0 0.00 0.00 0.00 78 1021.6
20260906090522 42 117 0.0 0.0 0.00 0.00 0.00 78 1021.7
20260906085516 42 117 0.0 0.0 0.00 0.00 0.00 78 1021.6
20260906085020 43 117 0.0 0.0 0.00 0.00 0.00 78 1021.5
20260906084019 43 117 0.0 0.0 0.00 0.00 0.00 77 1021.7
20260906083519 43 117 0.0 0.0 0.00 0.00 0.00 77 1021.7
20260906082520 43 117 0.0 0.0 0.00 0.00 0.00 77 1021.7
20260906082019 43 117 0.0 0.0 0.00 0.00 0.00 77 1021.8
20260906081018 43 117 0.0 0.0 0.00 0.00 0.00 77 1021.8
20260906080516 43 117 0.0 0.0 0.00 0.00 0.00 77 1021.9
20260906075517 43 117 0.0 0.0 0.00 0.00 0.00 77 1021.9
20260906075019 43 117 0.0 0.0 0.00 0.00 0.00 76 1022.0
20260906074018 43 117 0.0 0.0 0.00 0.00 0.00 78 1022.0
20260906073520 43 117 0.0 0.0 0.00 0.00 0.00 78 1022.0
20260906072519 43 117 0.0 0.0 0.00 0.00 0.00 77 1022.1
20260906072019 43 117 0.0 0.0 0.00 0.00 0.00 77 1022.1
20260906071536 43 117 0.0 0.0 0.00 0.00 0.00 78 1022.2
20260906071019 43 117 0.0 0.0 0.00 0.00 0.00 79 1022.3
20260906070518 43 117 0.0 0.0 0.00 0.00 0.00 79 1022.5
20260906070042 42 117 0.0 0.0 0.00 0.00 0.00 80 1022.4
20260906065519 42 117 0.0 0.0 0.00 0.00 0.00 80 1022.5
20260906065017 42 117 0.0 0.0 0.00 0.00 0.00 81 1022.3
20260906064538 42 117 0.0 0.0 0.00 0.00 0.00 81 1022.2
20260906064019 42 117 0.0 0.0 0.00 0.00 0.00 81 1022.3
20260906063518 42 117 0.0 0.0 0.00 0.00 0.00 81 1022.2
20260906063040 42 117 0.0 0.0 0.00 0.00 0.00 81 1022.3
20260906062518 42 117 0.0 0.0 0.00 0.00 0.00 80 1022.3
20260906062015 42 117 0.0 0.0 0.00 0.00 0.00 80 1022.2
20260906061541 43 117 0.0 0.0 0.00 0.00 0.00 81 1022.3
20260906061019 43 117 0.0 0.0 0.00 0.00 0.00 80 1022.3
20260906060521 43 117 0.0 0.0 0.00 0.00 0.00 79 1022.2
20260906060054 43 117 0.0 0.0 0.00 0.00 0.00 80 1022.4
20260906055519 43 117 0.0 0.0 0.00 0.00 0.00 80 1022.4
20260906055016 43 117 0.0 0.0 0.00 0.00 0.00 80 1022.3
20260906054548 43 117 0.0 0.0 0.00 0.00 0.00 79 1022.4
20260906054018 43 117 0.0 0.0 0.00 0.00 0.00 79 1022.5
20260906053518 43 117 0.0 0.0 0.00 0.00 0.00 79 1022.5
20260906053042 43 117 0.0 0.0 0.00 0.00 0.00 79 1022.6
20260906051539 44 117 0.0 0.0 0.00 0.00 0.00 78 1022.6
20260906051019 44 117 0.0 0.0 0.00 0.00 0.00 78 1022.6
20260906050519 44 117 0.0 0.0 0.00 0.00 0.00 78 1022.6
20260906050046 44 117 0.0 0.0 0.00 0.00 0.00 77 1022.5
20260906045518 44 117 0.0 0.0 0.00 0.00 0.00 77 1022.5
20260906045018 44 117 0.0 0.0 0.00 0.00 0.00 77 1022.6
20260906044556 44 117 0.0 0.0 0.00 0.00 0.00 77 1022.7
20260906044019 44 117 0.0 0.0 0.00 0.00 0.00 77 1022.6
20260906043516 44 117 0.0 0.0 0.00 0.00 0.00 76 1022.7
20260906043048 44 117 0.0 0.0 0.00 0.00 0.00 77 1022.7
20260906042520 44 117 0.0 0.0 0.00 0.00 0.00 78 1022.7
20260906042019 44 117 0.0 0.0 0.00 0.00 0.00 80 1022.7
20260906041550 44 117 0.0 0.0 0.00 0.00 0.00 78 1022.7
20260906041019 44 117 0.0 0.0 0.00 0.00 0.00 78 1022.6
20260906040518 44 117 0.0 0.0 0.00 0.00 0.00 77 1022.7
20260906040049 44 117 0.0 0.0 0.00 0.00 0.00 78 1022.5
20260906035519 44 117 0.0 0.0 0.00 0.00 0.00 78 1022.6
20260906035018 44 117 0.0 0.0 0.00 0.00 0.00 77 1022.7
20260906034553 45 117 0.0 0.0 0.00 0.00 0.00 77 1022.7
20260906034019 45 117 0.0 0.0 0.00 0.00 0.00 76 1022.8
20260906033519 45 117 0.0 0.0 0.00 0.00 0.00 75 1022.7
20260906033047 46 117 0.0 0.0 0.00 0.00 0.00 73 1022.7
20260906032517 47 116 0.0 0.0 0.00 0.00 0.00 79 1022.5
20260906032017 47 116 0.0 0.0 0.00 0.00 0.00 76 1022.4
20260906031549 48 116 0.0 0.0 0.00 0.00 0.00 72 1022.5
20260906031018 47 116 0.0 0.0 0.00 0.00 0.00 68 1022.4
20260906030518 47 116 0.0 0.0 0.00 0.00 0.00 67 1022.2
20260906030046 47 116 0.0 0.0 0.00 0.00 0.00 67 1022.3
20260906025518 47 116 0.0 0.0 0.00 0.00 0.00 68 1022.2
20260906024549 47 116 0.0 0.0 0.00 0.00 0.00 67 1022.1
20260906024019 47 116 0.0 0.0 0.00 0.00 0.00 67 1022.1
20260906023520 47 115 0.0 0.0 0.00 0.00 0.00 67 1022.0
20260906023052 47 116 0.0 0.0 0.00 0.00 0.00 66 1022.0
20260906022517 48 115 0.0 0.0 0.00 0.00 0.00 66 1021.9
20260906022023 48 116 0.0 0.0 0.00 0.00 0.00 66 1021.8
20260906021557 48 117 0.0 0.0 0.00 0.00 0.00 66 1021.8
20260906021019 48 117 0.0 0.0 0.00 0.00 0.00 64 1021.8
20260906020518 48 117 0.0 0.0 0.00 0.00 0.00 64 1021.9
20260906020047 49 117 0.0 0.0 0.00 0.00 0.00 64 1022.0
20260906014546 49 117 0.0 0.0 0.00 0.00 0.00 64 1022.0
20260906014018 49 117 0.0 0.0 0.00 0.00 0.00 64 1021.9
20260906013519 50 117 0.0 0.0 0.00 0.00 0.00 65 1021.9
20260906013044 50 117 0.0 0.0 0.00 0.00 0.00 64 1021.9
20260906012517 50 117 0.0 0.0 0.00 0.00 0.00 64 1021.8
20260906012019 50 117 0.0 0.0 0.00 0.00 0.00 64 1021.7
20260906011604 50 117 0.0 0.0 0.00 0.00 0.00 63 1021.6
20260906010517 51 117 0.0 0.0 0.00 0.00 0.00 63 1021.7
20260906010053 51 117 0.0 0.0 0.00 0.00 0.00 62 1021.7
20260906005519 52 117 0.0 0.0 0.00 0.00 0.00 62 1021.7
20260906005022 52 117 0.0 0.0 0.00 0.00 0.00 62 1021.7
20260906004548 52 117 0.0 0.0 0.00 0.00 0.00 62 1021.6
20260906004018 52 117 0.0 0.0 0.00 0.00 0.00 61 1021.6
20260906003518 52 117 0.0 0.0 0.00 0.00 0.00 61 1021.6
20260906003046 52 117 0.0 0.0 0.00 0.00 0.00 61 1021.6
20260906002020 52 117 0.0 0.0 0.00 0.00 0.00 61 1021.6
20260906001600 52 117 0.0 0.0 0.00 0.00 0.00 60 1021.6
20260906001018 52 117 0.0 0.0 0.00 0.00 0.00 60 1021.5
20260906000523 52 117 0.0 0.0 0.00 0.00 0.00 60 1021.5
20260906000049 52 117 0.0 0.0 0.00 0.00 0.00 60 1021.4
20260905235519 52 117 0.0 0.0 0.00 0.00 0.00 61 1021.4
20260905235019 52 117 0.0 0.0 0.00 0.00 0.00 63 1021.6
20260905234547 52 117 0.0 0.0 0.00 0.00 0.00 63 1021.5
20260905234019 52 117 0.0 8.0 0.00 0.00 0.00 62 1021.5
20260905233516 53 117 0.0 2.0 0.00 0.00 0.00 61 1021.7
20260905233102 54 117 0.0 0.0 0.00 0.00 0.00 61 1021.7
20260905232517 54 116 0.0 0.0 0.00 0.00 0.00 60 1021.7
20260905231551 56 116 0.0 3.0 0.00 0.00 0.00 52 1021.7
20260905231019 56 116 0.0 6.0 0.00 0.00 0.00 52 1021.6
20260905230520 56 117 0.0 0.0 0.00 0.00 0.00 51 1021.6
20260905230048 57 117 0.0 3.0 0.00 0.00 0.00 50 1021.5
20260905225518 57 116 0.0 3.0 0.00 0.00 0.00 51 1021.7
20260905225020 57 117 0.0 3.0 0.00 0.00 0.00 50 1021.6
20260905224604 57 117 0.0 4.0 0.00 0.00 0.00 50 1021.7
20260905224020 57 117 0.0 6.0 0.00 0.00 0.00 51 1021.7
20260905223518 56 118 2.0 6.0 0.00 0.00 0.00 51 1021.8
20260905223054 56 117 0.0 10.0 0.00 0.00 0.00 50 1021.7
20260905222524 55 117 0.0 6.0 0.00 0.00 0.00 55 1021.8
20260905222022 55 117 0.0 6.0 0.00 0.00 0.00 52 1021.7
20260905221542 54 117 0.0 0.0 0.00 0.00 0.00 54 1021.7
20260905221018 54 117 0.0 0.0 0.00 0.00 0.00 54 1021.7
20260905220522 54 117 0.0 0.0 0.00 0.00 0.00 53 1021.9
20260905220051 54 117 0.0 3.0 0.00 0.00 0.00 53 1021.9
20260905215518 54 117 0.0 3.0 0.00 0.00 0.00 52 1021.9
20260905215018 55 117 0.0 4.0 0.00 0.00 0.00 53 1022.0
20260905214557 55 118 0.0 4.0 0.00 0.00 0.00 52 1022.1